This demonstration page uses our WeatherBlox Daily Observations layout. Learn more.

Left ArrowRight Arrow

38.20091, -84.87328

Hourly Observations for May 20, 2020

Temp ( °F °C ) Dew Point ( °F °C ) Humidity (%) Winds ( mph kmh ) Pressure ( in mb ) Visibility ( mi km ) Precip ( " mm )
12:08 am 00:08 Cloudy 59 15 55 12.8 87 87 E 8 13 29.92 1013 10 16 0.00 0.00
12:53 am 00:53 Cloudy 59 15 54 12.2 83 83 E 13 20 29.92 1013 10 16 0.00 0.00
1:53 am 01:53 Cloudy 58 14.4 53 11.7 84 84 E 10 17 29.91 1013 10 16 0.00 0.00
2:42 am 02:42 Cloudy 58 14.4 52 11.1 81 81 E 13 20 29.93 1013 10 16 0.00 0.00
2:53 am 02:53 Cloudy 58 14.4 52 11.1 81 81 E 12 19 29.91 1013 10 16 0.00 0.00
3:02 am 03:02 Cloudy 58 14.4 52 11.1 81 81 E 10 17 29.92 1013 10 16 0.00 0.00
3:53 am 03:53 Cloudy 57 13.9 52 11.1 83 83 E 12 19 29.90 1012 10 16 0.00 0.00
4:53 am 04:53 Cloudy 57 13.9 51 10.6 81 81 E 10 17 29.91 1013 10 16 0.00 0.00
5:53 am 05:53 Cloudy 57 13.9 51 10.6 81 81 ENE 12 19 29.93 1013 10 16 0.00 0.00
6:53 am 06:53 Cloudy 56 13.3 50 10 81 81 E 12 19 29.94 1014 10 16 0.00 0.00
7:53 am 07:53 Cloudy 56 13.3 50 10 81 81 ENE 12 19 29.98 1015 10 16 0.00 0.00
8:53 am 08:53 Cloudy 56 13.3 49 9.4 77 77 E 14 22 29.98 1015 10 16 0.00 0.00
9:53 am 09:53 Cloudy 58 14.4 50 10 75 75 NE 10 17 29.98 1015 10 16 0.00 0.00
10:53 am 10:53 Cloudy 58 14.4 49 9.4 72 72 ENE 9 15 30.00 1016 10 16 0.00 0.00
11:53 am 11:53 Cloudy 60 15.6 50 10 70 70 ENE 10 17 30.01 1016 10 16 0.00 0.00
12:53 pm 12:53 Cloudy 62 16.7 51 10.6 67 67 E 12 19 30.01 1016 10 16 0.00 0.00
1:53 pm 13:53 Cloudy 60 15.6 50 10 70 70 ENE 13 20 30.03 1017 10 16 0.00 0.00
2:26 pm 14:26 Cloudy 62 16.7 51 10.6 67 67 ENE 14 22 30.01 1016 10 16 0.00 0.00
2:33 pm 14:33 Cloudy 61 16.1 51 10.6 70 70 NE 13 20 30.01 1016 10 16 0.00 0.00
2:40 pm 14:40 Cloudy 61 16.1 51 10.6 70 70 E 13 20 30.01 1016 10 16 0.00 0.00
2:53 pm 14:53 Mostly Cloudy 62 16.7 51 10.6 67 67 NE 12 19 30.01 1016 10 16 0.00 0.00
3:15 pm 15:15 Mostly Cloudy 63 17.2 52 11.1 68 68 ENE 14 22 30.01 1016 10 16 0.00 0.00
3:53 pm 15:53 Cloudy 64 17.8 52 11.1 65 65 ENE 14 22 30.00 1016 10 16 0.00 0.00
4:53 pm 16:53 Cloudy 61 16.1 51 10.6 70 70 ENE 14 22 30.01 1016 10 16 0.00 0.00
5:53 pm 17:53 Cloudy 60 15.6 51 10.6 72 72 ENE 10 17 30.01 1016 10 16 0.00 0.00
6:20 pm 18:20 Cloudy 60 15.6 51 10.6 72 72 ENE 14 22 30.00 1016 10 16 0.00 0.00
6:53 pm 18:53 Cloudy 61 16.1 52 11.1 72 72 E 14 22 30.01 1016 10 16 0.00 0.00
7:53 pm 19:53 Cloudy 60 15.6 52 11.1 75 75 ENE 7 11 30.01 1016 10 16 0.00 0.00
8:01 pm 20:01 Cloudy 60 15.6 52 11.1 75 75 ENE 8 13 30.00 1016 10 16 0.00 0.00
8:30 pm 20:30 Mostly Cloudy 59 15 51 10.6 75 75 ENE 18 30 30.03 1017 10 16 0.00 0.00
8:53 pm 20:53 Cloudy 58 14.4 51 10.6 78 78 ENE 16 26 30.03 1017 10 16 0.00 0.00
9:53 pm 21:53 Cloudy 58 14.4 51 10.6 78 78 ENE 13 20 30.03 1017 10 16 0.00 0.00
10:53 pm 22:53 Cloudy 57 13.9 51 10.6 81 81 E 7 11 30.04 1017 10 16 0.00 0.00
11:44 pm 23:44 Partly Cloudy 56 13.3 50 10 81 81 E 7 11 30.04 1017 10 16 0.00 0.00
11:53 pm 23:53 Mostly Clear 56 13.3 50 10 81 81 ENE 12 19 30.03 1017 10 16 0.00 0.00

Powered by AerisWeather